OBJECT G, 57172

Orbit data source: Space-Track

You're viewing an Uncataloged Satellite

Recently launched and/or uncataloged satellites may have evolving metadata. Metadata may include but not limited to: Owner, Maufacturer, Bus, Motor, and Mission.

OBJECT G, 57172 is a satellite in SSO that was launched on Tue, 27 Jun 2023 UTC via a SOYUZ-2-1B launch vehicle from the Vostochny Cosmodrome (VOSTO). Unknown objects in Earth's orbit typically refer to objects detected orbiting the Earth but have not yet been identified or cataloged. These objects could be anything from previously untracked satellites, spent rocket stages, debris from satellite collisions, or even natural meteoroids temporarily captured by Earth's gravity.

Loading next visibility...
Identifier
57172, 2023-091G
Orbit
SSO
Country
Flag of TBDTBD
Related business
None
Manufacturer
Unknown
Mission
Operational Amateur Technology
Bus & Motor
Unknown
Mass
Unknown
Launch date (UTC)
2023-06-27 (3 years ago)
Launch vehicle
SOYUZ-2-1B
Launch site
Vostochny Cosmodrome (VOSTO)
Object type
Unknown
Shape & HBR
Box, 0.2 m
Radar Cross Section
0.035 m², Medium (>0.1 m² and < 1m²)

Expand to show TLE details & history
Last TLE update: 20 hours ago

TLE from 20 hours ago
0 OBJECT G
1 57172U 23091G   26207.63176479  .00006401  00000-0  28937-3 0  9990
2 57172  97.5032 266.1823 0011877 349.7528  10.3463 15.21229305170005
Epoch: 2026-07-26T15:09Z
TLE epoch observation values (Epoch: 2026-07-26T15:09:44.477Z)
Latitude
-0.0001°
Longitude
94.42008°
Altitude
497.18 km
Speed
7.62 km/s
True Right ascension
17h 44m 43s
True Declination
0° 00' 00"
Sunlit
Object was in full shadow at epoch
Visualization orbit readout
Latitude
Unknown
Longitude
Unknown
Altitude
Unknown
Speed
Unknown
Apparent Right ascension
Unknown
Apparent Declination
Unknown
Sunlit
N/A
Visualization observer readout
Local Sidereal Time
00:03:02
Azimuth
Unknown
Elevation
Unknown
Doppler factor
Unknown
Orbital elements
Apogee altitude
507.268 km
Perigee altitude
490.932 km
Semi-major axis
6,877.237 km
Eccentricity
0.00119
Inclination
97.5032°
RAAN
266.1823°
Arg. of periapsis
349.7528°
True anomaly
10.37078°
Mean anomaly
10.3463°
Eccentric anomaly
10.35854°
Mean motion
3.80559 °/min
Orbital period
94.6 mins
BSTAR
0.00028937
Loading maneuver chart data...
Computing Atmospheric mass density...
Loading historical data...
Loading historical data...
Loading historical data...
Loading historical data...
Loading historical data...
Loading historical data...
Loading historical data...

Documentation

Showing up to 5 results
|